Regional Weather Roundup
Issued by NWS

Home | Current Version | Previous Version | Text Only | Print | Product List | Glossary Off
Versions: 1 2 3 4 5 6 7 8 9 10 11 12 13 14 15 16 17 18 19 20 21 22 23 24 25 26 27 28 29 30 31 32 33 34 35 36 37 38 39 40 41 42 43 44 45 46 47 48 49 50

000
ASUS43 KMPX 080210
RWRMN
WEATHER ROUNDUP FOR MINNESOTA
NATIONAL WEATHER SERVICE TWIN CITIES/CHANHASSEN MN
800 PM CST SUN FEB 07 2016


NOTE: "FAIR" INDICATES FEW OR NO CLOUDS BELOW 12,000 FEET WITH NO
SIGNIFICANT WEATHER AND/OR OBSTRUCTIONS TO VISIBILITY. N/A MEANS
CURRENT SKY AND/OR WEATHER CONDITIONS ARE NOT AVAILABLE.

MNZ060>063-068>070-080300-
   Twin Cities Metro

CITY           SKY/WX    TMP DP  RH WIND       PRES   REMARKS
TWIN CITIES    LGT SNOW  23  18  81 NW21G35   29.74R WCI   8
ST PAUL        LGT SNOW  24  19  81 NW18G35   29.75R WCI  10
CRYSTAL        LGT SNOW  23  17  78 NW26G35   29.74R VSB 1   WCI   6
BLAINE         LGT SNOW  25  19  80 NW20G32   29.72R WCI  11
LAKEVILLE      LGT SNOW  23  21  93 NW22G35   29.73R WCI   8
EDEN PRAIRIE   LGT SNOW  24  18  77 NW22G30   29.73S WCI   9
SOUTH ST PAUL  LGT SNOW  25  21  83 NW14G25   29.73R WCI  14
LAKE ELMO      LGT SNOW  25  21  86 NW20G26   29.72R WCI  11
$$
MNZ001>005-007-008-013>017-022>024-027-028-080300-
   Northwest Minnesota

CITY           SKY/WX    TMP DP  RH WIND       PRES   REMARKS
BEMIDJI        LGT SNOW   9   5  82 NW20G31   29.81R WCI -10
HALLOCK        SNOW      10   7  85 N25G33    29.98R VSB 1/2 WCI -10
ROSEAU         LGT SNOW   7   1  78 NW20      29.90R WCI -13
WARROAD        LGT SNOW   7   1  78 NW24G31   29.88R VSB 1   WCI -15
CROOKSTON      HVY SNOW  10   9  92 N35G45    29.97R VSB<1/4 WCI -13
FOSSTON        LGT SNOW   9   5  85 NW17G25   29.89R WCI -10
DETROIT LAKES  SNOW      12   9  85 N29G44    29.88R VSB 1/2 WCI  -9
MOORHEAD       LGT SNOW  16  10  79 N22       29.97R WCI  -2
PARK RAPIDS    LGT SNOW  11   4  73 NW21G28   29.80R WCI  -8
MAHNOMEN       LGT SNOW   9   6  85 NW24      29.90R WCI -11
$$
MNZ006-009>011-018-025>026-080300-
   North Central Minnesota

CITY           SKY/WX    TMP DP  RH WIND       PRES   REMARKS
BAUDETTE       LGT SNOW   7   1  76 NW21G31   29.81R WCI -13
FLAG ISLAND    LGT SNOW   7   1  78 NW21      29.85R WCI -13
INTL FALLS     CLOUDY    19  13  77 N15       29.72R WCI   5
WASKISH        LGT SNOW  10   5  79 NW18G24   29.82R WCI  -8
LONGVILLE      LGT SNOW  12   9  85 W14G28    29.75R WCI  -3
GRAND RAPIDS   CLOUDY    16  12  86 NW18G28   29.69R WCI  -1
CRANE LAKE     CLOUDY    21  19  93 NW15G22   29.66R WCI   8
ORR            LGT SNOW  19  16  86 NW13G20   29.63R WCI   7
COOK           FLURRIES  21  19  93 NW9G22    29.63R WCI  11
WALKER         LGT SNOW  10   5  79 NW22G32   29.78R WCI  -9
$$
MNZ012-019>021-037-080300-
   Northeast Minnesota

CITY           SKY/WX    TMP DP  RH WIND       PRES   REMARKS
DULUTH         LGT SNOW  24  19  81 NW18G30   29.57R BLWGSNOWWCI  10
ELY            LGT SNOW  27  27 100 NW8       29.56R WCI  18
HIBBING        LGT SNOW  18  14  86 NW23G31   29.63R FOG     WCI   0
EVELETH        FLURRIES  23  19  86 NW20G31   29.60R WCI   8
DULUTH HARBOR  LGT SNOW  28  25  86 W20       29.62R WCI  15
TWO HARBORS    CLOUDY    30  25  80 NW9G22    29.54R WCI  22
SILVER BAY     FLURRIES  32  28  86 CALM      29.54R
GRAND MARAIS     N/A     27  21  78 VRB6      29.57R WCI  20
G MARAIS ARPRT LGT SNOW  19  16  86 N12       29.51R WCI   7
$$
MNZ029>031-032-039>041-046>048-054>057-064-080300-
   West Central Minnesota

CITY           SKY/WX    TMP DP  RH WIND       PRES   REMARKS
FERGUS FALLS   LGT SNOW  16  10  79 N28G46    29.93R WCI  -4
WHEATON        LGT SNOW  19  18  93 NW16G28   29.96R WCI   5
MORRIS         LGT SNOW  19  16  86 N35       29.89R VSB 1   WCI  -1
ALEXANDRIA     LGT SNOW  14   8  77 NW22G35   29.83R WCI  -4
ELBOW LAKE     LGT SNOW  15  10  82 NW28G46   29.89R WCI  -5
WADENA         LGT SNOW  10   5  79 NW25G37   29.82R WCI -10
GLENWOOD       CLOUDY    16  10  79 NW28G40   29.83R HAZE    WCI  -4
APPLETON       LGT SNOW  21  18  86 N28       29.91R WCI   3
BENSON         FLURRIES  19  12  73 N25G39    29.88R WCI   2
ORTONVILLE     FLURRIES  21  12  68 NW28G36   29.92R WCI   3
MADISON        FLURRIES  25  16  68 NW29G43   29.92R WCI   8
WILLMAR        FAIR      21  16  79 NW32G39   29.85R WCI   2
$$
MNZ033>034-036-042>043-049>051-058-059-080300-
   Central Minnesota

CITY           SKY/WX    TMP DP  RH WIND       PRES   REMARKS
ST CLOUD       LGT SNOW  17  11  77 NW30G41   29.76S WCI  -3
SAUK CENTRE    LGT SNOW  15   9  77 NW23G37   29.82R WCI  -4
PAYNESVILLE    CLOUDY    18  11  73 NW24G36   29.82R WCI   0
AITKIN         FLURRIES  18   9  68 NW9G20    29.70R WCI   6
PINE RIVER     FLURRIES  12   7  79 NW16G22   29.80R WCI  -4
BRAINERD       LGT SNOW  14   8  77 NW14      29.75R WCI  -1
STAPLES        FLURRIES  10   7  85 NW25G33   29.80R WCI -10
LONG PRAIRIE   LGT SNOW  14   9  79 NW25G36   29.81R WCI  -5
LITTLE FALLS   LGT SNOW  16   9  73 NW16G32   29.78S WCI   0
LITCHFIELD     LGT SNOW  19  18  93 NW24G31   29.81R WCI   2
BUFFALO        LGT SNOW  20  17  84 NW16G25   29.78R WCI   6
MAPLE LAKE     LGT SNOW  20  16  83 NW22G29   29.78S WCI   4
$$
MNZ037-044-045-052-053-080300-
   East Central Minnesota

CITY           SKY/WX    TMP DP  RH WIND       PRES   REMARKS
PRINCETON      LGT SNOW  19  14  79 W20G33    29.74R WCI   4
MORA           MOCLDY    19  12  73 NW18G26   29.72R WCI   4
CAMBRIDGE      LGT SNOW  21  14  73 W21G26    29.70R WCI   6
RUSH CITY      CLOUDY    23  16  75 NW14G23   29.70R WCI  10
MOOSE LAKE     LGT SNOW  21  18  86 NW10G23   29.64R WCI  10
HINCKLEY       CLOUDY    23  18  80 W13G18    29.68R WCI  11
CLOQUET        LGT SNOW  23  19  86 W16G23    29.60R WCI  10
MCGREGOR       CLOUDY    19  16  86 NW18G28   29.69R WCI   4
$$
MNZ071>073-080-081-089-090-097-098-080300-
   Southwest Minnesota

CITY           SKY/WX    TMP DP  RH WIND       PRES   REMARKS
MONTEVIDEO     FLURRIES  21  18  86 N22G29    29.91R WCI   5
GRANITE FALLS  LGT SNOW  25  20  83 NW16G23   29.90R WCI  12
CANBY          LGT SNOW  26  21  82 W22G35    29.92S WCI  12
MARSHALL       FLURRIES  24  18  77 NW25G32   29.88R WCI   8
REDWOOD FALLS  LGT SNOW  23  18  81 NW16G35   29.86R WCI  10
OLIVIA         LGT SNOW  23  18  80 NW29G39   29.84R WCI   6
PIPESTONE      LGT SNOW  25  12  58 N28G41    29.90R WCI   8
WINDOM         LGT SNOW  25  19  80 NW28G35   29.83S WCI   8
WORTHINGTON    CLOUDY   N/A N/A N/A NW31G39   29.86S
JACKSON          N/A     28  23  80 NW29G37   29.83R WCI  13
TRACY          LGT SNOW  24  23  93 NW23      29.87S VSB 3/4 WCI   9
SLAYTON        CLOUDY    23  19  86 NW28G38   29.87R FOG     WCI   6
$$
MNZ065>067-074>077-082>085-091>093-080300-
   South Central Minnesota

CITY           SKY/WX    TMP DP  RH WIND       PRES   REMARKS
MANKATO        CLOUDY   N/A N/A N/A NW25G32   29.78R
NEW ULM        LGT SNOW  23  21  93 NW23G32   29.81R VSB 3/4 WCI   7
ST JAMES       MIX PCPN  28  25  86 NW22G35   29.83R WCI  15
FAIRMONT       CLOUDY    28  19  69 NW26G35   29.80R WCI  13
GLENCOE        LGT SNOW  25  22  91 NW21G29   29.78R WCI  10
FARIBAULT      FLURRIES  27  19  74 NW22G35   29.75R WCI  12
OWATONNA       CLOUDY    28  21  74 NW25G35   29.74R WCI  14
WASECA         CLOUDY    28  23  80 NW28G35   29.77R WCI  13
ALBERT LEA     CLOUDY    28  23  80 NW18G28   29.74S WCI  16
$$
MNZ078>079-086>088-094>096-080300-
   Southeast Minnesota

CITY           SKY/WX    TMP DP  RH WIND       PRES   REMARKS
ROCHESTER      FLURRIES  31  24  75 NW26G40   29.68R WCI  17
RED WING       CLOUDY    32  21  64 NW20G25   29.69R WCI  20
STANTON        FLURRIES  28  21  78 NW25G33   29.73R WCI  13
DODGE CENTER   CLOUDY    28  25  86 NW26G36   29.70R WCI  13
WINONA         CLOUDY    36  32  87 W13G21    29.66F
AUSTIN         FLURRIES  30  27  86 NW30G36   29.71R WCI  15
PRESTON        CLOUDY    32  30  93 W18       29.67F WCI  20
$$
ABBREVIATIONS USED IN REMARKS
   TC - TEMPERATURES IN CELSIUS
  WCI - WIND CHILL INDEX
   HX - HEAT INDEX
  VSB - VISIBILITY
$$



USA.gov is the U.S. government's official web portal to all federal, state and local government web resources and services.